Regional Weather Roundup
Issued by NWS Little Rock, AR

Home | Current Version | Previous Version | Graphics & Text | Print | Product List | Glossary On
Versions: 1 2 3 4 5 6 7 8 9 10 11 12 13 14 15 16 17 18 19 20 21 22 23 24 25 26 27 28 29 30 31
000
ASUS44 KLZK 241805
RWRLZK

WEATHER ROUNDUP FOR ARKANSAS
NATIONAL WEATHER SERVICE LITTLE ROCK AR
100 PM CDT FRI MAR 24 2017

NOTE: "FAIR" INDICATES FEW OR NO CLOUDS BELOW 12,000 FEET WITH NO
SIGNIFICANT WEATHER AND/OR OBSTRUCTIONS TO VISIBILITY.

ARZ001-003-010-029-241900-
NORTHWEST ARKANSAS

CITY           SKY/WX    TMP DP  RH WIND       PRES   REMARKS
FAYETTEVILLE   CLOUDY    68  57  68 S18G28    29.93F
6HR MIN TEMP:  63; 6HR MAX TEMP:  68; 6HR PCP: TRACE;

FORT SMITH     CLOUDY    71  52  50 S13       29.91F
6HR MIN TEMP:  67; 6HR MAX TEMP:  72;

HARRISON       CLOUDY    67  53  61 S14G29    30.00F
6HR MIN TEMP:  64; 6HR MAX TEMP:  71;

BENTONVILLE    CLOUDY    64  54  68 S7G17     29.94F
6HR MIN TEMP:  63; 6HR MAX TEMP:  66; 6HR PCP:  0.03;

ROGERS         LGT RAIN  65  56  72 S13G20    29.94F
6HR MIN TEMP:  64; 6HR MAX TEMP:  68; 6HR PCP:  0.07;

SILOAM SPGS    CLOUDY    63  54  72 S13G20    29.93F
6HR MIN TEMP:  63; 6HR MAX TEMP:  64;

HIGHFILL       CLOUDY    66  56  70 S17       29.92F
6HR MIN TEMP:  63; 6HR MAX TEMP:  67; 6HR PCP: TRACE;

SPRINGDALE     CLOUDY    68  55  64 S16G24    29.96S
$$

ARZ004-005-016-241900-
NORTH CENTRAL ARKANSAS

CITY           SKY/WX    TMP DP  RH WIND       PRES   REMARKS
BATESVILLE     CLOUDY    73  57  56 S18G28    30.07F
6HR MIN TEMP:  64; 6HR MAX TEMP:  73;

FLIPPIN        CLOUDY    72  52  49 S14G26    29.98F
6HR MIN TEMP:  66; 6HR MAX TEMP:  72;

MTN HOME       CLOUDY    70  53  54 SW17G31   30.00F
6HR MIN TEMP:  65; 6HR MAX TEMP:  73;

$$

ARZ040-041-241900-
WEST CENTRAL ARKANSAS

CITY           SKY/WX    TMP DP  RH WIND       PRES   REMARKS
MENA           PTSUNNY   73  59  60 S10G24    29.96F
MOUNT IDA      CLOUDY    71  57  61 S8G25     29.98F
6HR MIN TEMP:  65; 6HR MAX TEMP:  73;

$$

ARZ009-017-025-026-028-241900-
NORTHEAST ARKANSAS

CITY           SKY/WX    TMP DP  RH WIND       PRES   REMARKS
JONESBORO      PTSUNNY   73  59  61 S22G33    30.11F
6HR MIN TEMP:  62; 6HR MAX TEMP:  74;

NEWPORT        CLOUDY    75  60  59 MISG        N/A
6HR MIN TEMP:  63; 6HR MAX TEMP:  75;

WALNUT RIDGE   CLOUDY    73  59  60 S30G37    30.08F
6HR MIN TEMP:  61; 6HR MAX TEMP:  73;

BLYTHEVILLE    PTSUNNY   74  62  66 S14       30.15F
6HR MIN TEMP:  64; 6HR MAX TEMP:  74;

$$

ARZ022-023-033-042-044-241900-
CENTRAL ARKANSAS

CITY           SKY/WX    TMP DP  RH WIND       PRES   REMARKS
LITTLE ROCK    CLOUDY    73  60  63 S18G31    30.06F
6HR MIN TEMP:  65; 6HR MAX TEMP:  74;

N LITTLE ROCK    N/A     73  60  65 S13G29    30.05F
6HR MIN TEMP:  65; 6HR MAX TEMP:  73;

JACKSONVILLE   CLOUDY    74  60  61 S10G21    30.05F
6HR MIN TEMP:  64; 6HR MAX TEMP:  74;

CONWAY           N/A     73  59  60 S25       30.01F
SEARCY         CLOUDY    73  62  68 S20G26    30.08F
6HR MIN TEMP:  64; 6HR MAX TEMP:  75;

HOT SPRINGS    CLOUDY    72  61  68 S14G32    30.03F
6HR MIN TEMP:  65; 6HR MAX TEMP:  72;

RUSSELLVILLE   PTSUNNY   72  58  61 S9        30.00F
6HR MIN TEMP:  66; 6HR MAX TEMP:  73;

CLINTON        PTSUNNY   72  59  64 S12G21    30.04S
$$

ARZ036-241900-
EAST ARKANSAS

CITY           SKY/WX    TMP DP  RH WIND       PRES   REMARKS
WEST MEMPHIS   PTSUNNY   75  61  61 S20G31    30.14F
6HR MIN TEMP:  65; 6HR MAX TEMP:  76;

$$

ARZ050-053-066-070-073-241900-
SOUTHWEST ARKANSAS

CITY           SKY/WX    TMP DP  RH WIND       PRES   REMARKS
ARKADELPHIA    FAIR      73  62  68 S15G22    30.04F
6HR MIN TEMP:  62; 6HR MAX TEMP:  73;

CAMDEN         CLOUDY    73  59  60 S10G16    30.08F
TEXARKANA      CLOUDY    74  61  63 S22G33    30.00F
6HR MIN TEMP:  64; 6HR MAX TEMP:  75;

EL DORADO      CLOUDY    73  61  65 S15       30.09F
6HR MIN TEMP:  66; 6HR MAX TEMP:  73;

DE QUEEN       MOSUNNY   76  61  59 SE22G30   29.93F
6HR MIN TEMP:  59; 6HR MAX TEMP:  76;

$$

ARZ056-057-069-241900-
SOUTHEAST ARKANSAS

CITY           SKY/WX    TMP DP  RH WIND       PRES   REMARKS
PINE BLUFF     CLOUDY    74  60  61 S17       30.11F
6HR MIN TEMP:  66; 6HR MAX TEMP:  74;

STUTTGART      PTSUNNY   75  55  50 S22G31    30.12F
6HR MIN TEMP:  64; 6HR MAX TEMP:  75;

MONTICELLO     CLOUDY    75  61  61 S15G24    30.13F
6HR MIN TEMP:  66; 6HR MAX TEMP:  77;


$$






USA.gov is the U.S. government's official web portal to all federal, state and local government web resources and services.